When you browse on this site, cookies collect data to enhance your experience and personalize the content and advertising you see.
Visit our Privacy Policy to learn more. By continuing to use the site, you agree to this use of cookies and data.
  • In Lithuania
  • List of Countries
  • For 7 days
  • Water Temperature
  • Satellite Maps
  • Weather Map
  • Weather Widgets
  • user-avatar
    Login

    Hourly Weather Francistown

    Today, 24 February, Sunday

    Time Temperature Precipitation Wind Pressure Humidity
    00:00 +26°C° 0 mm 2 mps 676 mmHg 51%
    01:00 +25°C° 0 mm 2 mps 675 mmHg 52%
    02:00 +25°C° 0 mm 2 mps 675 mmHg 53%
    03:00 +25°C° 0 mm 2 mps 675 mmHg 54%
    04:00 +24°C° 0 mm 3 mps 675 mmHg 54%
    05:00 +24°C° 0 mm 3 mps 675 mmHg 54%
    06:00 +25°C° 0 mm 3 mps 675 mmHg 52%
    07:00 +26°C° 0 mm 3 mps 676 mmHg 50%
    08:00 +28°C° 0 mm 3 mps 676 mmHg 48%
    09:00 +30°C° 0 mm 3 mps 677 mmHg 41%
    10:00 +32°C° 0 mm 2 mps 677 mmHg 35%
    11:00 +36°C° 0 mm 2 mps 677 mmHg 29%
    12:00 +37°C° 0 mm 2 mps 677 mmHg 27%
    13:00 +37°C° 0 mm 1 mps 677 mmHg 24%
    14:00 +39°C° 0 mm 1 mps 676 mmHg 22%
    15:00 +37°C° 0 mm 1 mps 676 mmHg 23%
    16:00 +35°C° 0 mm 0 mps 675 mmHg 24%
    17:00 +34°C° 0 mm 0 mps 675 mmHg 24%
    18:00 +34°C° 0 mm 1 mps 675 mmHg 27%
    19:00 +32°C° 0 mm 1 mps 675 mmHg 30%
    20:00 +31°C° 0 mm 1 mps 674 mmHg 32%
    21:00 +30°C° 0 mm 2 mps 675 mmHg 34%
    22:00 +29°C° 0 mm 2 mps 675 mmHg 36%
    23:00 +28°C° 0 mm 3 mps 675 mmHg 38%

    Tomorrow, 25 February, Monday

    Time Temperature Precipitation Wind Pressure Humidity
    00:00 +28°C° 0 mm 3 mps 675 mmHg 39%
    01:00 +27°C° 0 mm 3 mps 675 mmHg 40%
    02:00 +27°C° 0 mm 3 mps 674 mmHg 41%
    03:00 +27°C° 0 mm 3 mps 674 mmHg 42%
    04:00 +26°C° 0 mm 3 mps 674 mmHg 43%
    05:00 +26°C° 0 mm 3 mps 674 mmHg 44%
    06:00 +27°C° 0 mm 3 mps 675 mmHg 42%
    07:00 +28°C° 0 mm 3 mps 676 mmHg 41%
    08:00 +29°C° 0 mm 3 mps 676 mmHg 40%
    09:00 +31°C° 0 mm 3 mps 677 mmHg 35%
    10:00 +35°C° 0 mm 3 mps 677 mmHg 30%
    11:00 +37°C° 0 mm 3 mps 678 mmHg 26%
    12:00 +37°C° 0 mm 3 mps 677 mmHg 24%
    13:00 +38°C° 0 mm 3 mps 676 mmHg 22%
    14:00 +39°C° 0 mm 2 mps 676 mmHg 21%
    15:00 +38°C° 0 mm 3 mps 675 mmHg 23%
    16:00 +37°C° 0 mm 4 mps 675 mmHg 25%
    17:00 +36°C° 0 mm 4 mps 674 mmHg 28%
    18:00 +35°C° 0 mm 4 mps 674 mmHg 31%
    19:00 +33°C° 0 mm 4 mps 674 mmHg 34%
    20:00 +30°C° 0 mm 4 mps 674 mmHg 38%
    21:00 +30°C° 0 mm 3 mps 675 mmHg 39%
    22:00 +29°C° 0 mm 3 mps 675 mmHg 41%
    23:00 +28°C° 0 mm 3 mps 675 mmHg 43%

    Day after tomorrow, 26 February, Tuesday

    Time Temperature Precipitation Wind Pressure Humidity
    00:00 +27°C° 0 mm 3 mps 675 mmHg 46%
    01:00 +27°C° 0 mm 3 mps 675 mmHg 49%
    02:00 +26°C° 0 mm 3 mps 674 mmHg 53%
    03:00 +26°C° 0 mm 2 mps 674 mmHg 54%
    04:00 +25°C° 0 mm 2 mps 674 mmHg 55%
    05:00 +25°C° 0 mm 2 mps 674 mmHg 57%
    06:00 +26°C° 0.1 mm 2 mps 675 mmHg 55%
    07:00 +27°C° 0.1 mm 2 mps 676 mmHg 53%
    08:00 +28°C° 0.1 mm 2 mps 676 mmHg 51%
    09:00 +31°C° 0 mm 3 mps 677 mmHg 44%
    10:00 +34°C° 0 mm 4 mps 677 mmHg 37%
    11:00 +37°C° 0 mm 4 mps 677 mmHg 30%
    12:00 +37°C° 0 mm 4 mps 677 mmHg 26%
    13:00 +38°C° 0 mm 4 mps 676 mmHg 23%
    14:00 +40°C° 0 mm 4 mps 675 mmHg 20%
    15:00 +39°C° 0 mm 3 mps 675 mmHg 19%
    16:00 +39°C° 0 mm 3 mps 674 mmHg 18%
    17:00 +39°C° 0 mm 2 mps 674 mmHg 17%
    18:00 +37°C° 0 mm 2 mps 674 mmHg 20%
    19:00 +33°C° 0 mm 1 mps 674 mmHg 24%
    20:00 +31°C° 0 mm 1 mps 674 mmHg 27%
    21:00 +30°C° 0 mm 1 mps 674 mmHg 29%
    22:00 +30°C° 0 mm 1 mps 674 mmHg 31%
    23:00 +29°C° 0 mm 2 mps 674 mmHg 33%

    27 February, Wednesday

    Time Temperature Precipitation Wind Pressure Humidity
    00:00 +28°C° 0 mm 2 mps 674 mmHg 36%
    01:00 +28°C° 0 mm 3 mps 674 mmHg 39%
    02:00 +27°C° 0 mm 3 mps 674 mmHg 42%
    03:00 +27°C° 0 mm 4 mps 674 mmHg 46%
    04:00 +27°C° 0 mm 4 mps 674 mmHg 49%
    05:00 +26°C° 0 mm 5 mps 674 mmHg 53%
    06:00 +27°C° 0 mm 5 mps 675 mmHg 51%
    07:00 +29°C° 0 mm 6 mps 675 mmHg 48%
    08:00 +30°C° 0 mm 6 mps 676 mmHg 45%
    09:00 +33°C° 0 mm 6 mps 676 mmHg 40%
    10:00 +35°C° 0 mm 6 mps 677 mmHg 34%
    11:00 +38°C° 0 mm 7 mps 677 mmHg 28%
    12:00 +39°C° 0 mm 6 mps 676 mmHg 26%
    13:00 +40°C° 0 mm 5 mps 676 mmHg 23%
    14:00 +41°C° 0 mm 4 mps 675 mmHg 20%
    15:00 +39°C° 0 mm 3 mps 675 mmHg 22%
    16:00 +38°C° 0 mm 2 mps 675 mmHg 24%
    17:00 +36°C° 0 mm 1 mps 674 mmHg 26%
    18:00 +36°C° 0 mm 2 mps 674 mmHg 27%
    19:00 +34°C° 0 mm 2 mps 675 mmHg 29%
    20:00 +32°C° 0 mm 2 mps 675 mmHg 30%
    21:00 +31°C° 0 mm 2 mps 675 mmHg 31%
    22:00 +31°C° 0 mm 2 mps 675 mmHg 33%
    23:00 +30°C° 0 mm 2 mps 675 mmHg 34%

    28 February, Thursday

    Time Temperature Precipitation Wind Pressure Humidity
    00:00 +29°C° 0 mm 2 mps 675 mmHg 39%
    01:00 +28°C° 0 mm 3 mps 675 mmHg 44%
    02:00 +27°C° 0 mm 3 mps 675 mmHg 49%
    03:00 +27°C° 0.2 mm 4 mps 675 mmHg 51%
    04:00 +27°C° 0.2 mm 4 mps 676 mmHg 52%
    05:00 +27°C° 0.2 mm 5 mps 676 mmHg 54%
    06:00 +26°C° 0.1 mm 5 mps 676 mmHg 57%
    07:00 +26°C° 0.1 mm 6 mps 677 mmHg 60%
    08:00 +26°C° 0.1 mm 7 mps 677 mmHg 63%
    09:00 +28°C° 0 mm 7 mps 678 mmHg 59%
    10:00 +30°C° 0 mm 7 mps 678 mmHg 54%
    11:00 +33°C° 0 mm 7 mps 679 mmHg 50%
    12:00 +34°C° 0 mm 6 mps 678 mmHg 45%
    13:00 +36°C° 0 mm 5 mps 678 mmHg 41%
    14:00 +37°C° 0 mm 5 mps 678 mmHg 36%
    15:00 +36°C° 0 mm 5 mps 677 mmHg 38%
    16:00 +36°C° 0 mm 5 mps 677 mmHg 41%
    17:00 +35°C° 0 mm 6 mps 676 mmHg 43%
    18:00 +33°C° 0.1 mm 6 mps 676 mmHg 51%
    19:00 +30°C° 0.1 mm 6 mps 677 mmHg 59%
    20:00 +28°C° 0.1 mm 6 mps 677 mmHg 67%
    21:00 +27°C° 0 mm 6 mps 677 mmHg 72%
    22:00 +26°C° 0 mm 6 mps 677 mmHg 76%
    23:00 +24°C° 0 mm 6 mps 677 mmHg 81%

    1 March, Friday

    Time Temperature Precipitation Wind Pressure Humidity
    00:00 +23°C° 0 mm 6 mps 677 mmHg 82%
    01:00 +23°C° 0 mm 6 mps 677 mmHg 84%
    02:00 +22°C° 0 mm 6 mps 676 mmHg 86%
    03:00 +22°C° 0 mm 6 mps 676 mmHg 85%
    04:00 +22°C° 0 mm 5 mps 676 mmHg 84%
    05:00 +22°C° 0 mm 5 mps 677 mmHg 83%
    06:00 +23°C° 0 mm 4 mps 677 mmHg 80%
    07:00 +25°C° 0 mm 4 mps 678 mmHg 77%
    08:00 +26°C° 0 mm 4 mps 678 mmHg 74%
    09:00 +27°C° 0 mm 4 mps 679 mmHg 67%
    10:00 +29°C° 0 mm 3 mps 679 mmHg 59%
    11:00 +31°C° 0 mm 3 mps 679 mmHg 51%
    12:00 +33°C° 0 mm 3 mps 678 mmHg 46%
    13:00 +35°C° 0 mm 2 mps 678 mmHg 40%
    14:00 +36°C° 0 mm 2 mps 677 mmHg 35%
    15:00 +36°C° 0 mm 2 mps 677 mmHg 34%
    16:00 +36°C° 0 mm 2 mps 676 mmHg 33%
    17:00 +36°C° 0 mm 3 mps 676 mmHg 32%
    18:00 +34°C° 0 mm 4 mps 676 mmHg 40%
    19:00 +32°C° 0 mm 4 mps 676 mmHg 48%
    20:00 +29°C° 0 mm 5 mps 675 mmHg 57%
    21:00 +29°C° 0.5 mm 5 mps 676 mmHg 62%
    22:00 +28°C° 0.5 mm 4 mps 676 mmHg 67%
    23:00 +27°C° 0.5 mm 4 mps 676 mmHg 72%
    Show more